SWARM C

Last updated on Fri Sep 11 2026 00:03:31 GMT+0000 (Coordinated Universal Time)

1 39453U 13067C 26253.59649674 .00008668 00000+0 15033-3 0 9991 2 39453 87.3351 23.0866 0002345 98.7315 261.4212 15.50686711719448
UTC large
Height (km)
Speed (km/s)
/
Latitude / Longitude
Inclination (degrees)
Orbital Period (minutes)
Azimuth
Elevation
Range (km)
Doppler Factor

Next 0 passes for location: London (51.5072 / 0.1276)

No passes found over London.
SWARM C